Flag for Philippines Weather past 2 weeks in Makati, Philippines

Now
77 °F

Partly cloudy.


Feels Like: 78 °F
Forecast: 78 / 86 °F
Wind: 2 mph from North

Location: National Airport

Current Time: Dec 21, 2014 at 3:38:55 AM

Latest Report: Dec 21, 2014 at 3:00 AM


Visibility: N/A

Pressure: 29.86 "Hg

Humidity: 100%

Dew point: 77 °F

Location of MakatiLocation

Historic Weather in Makati — Graph

°F

Makati temperature yesterday

Maximum temperature yesterday: 84 °F (at 12:00 PM)
Minimum temperature yesterday: 75 °F (at 7:00 AM)
Average temperature yesterday: 80 °F

Past Weeks' High & Low Weather Summary

 TemperatureHumidityPressure
High90 °F (Dec 11, 11:00 AM)100% (Dec 8, 4:00 PM)30.04 "Hg (Dec 8, 4:00 PM)
Low73 °F (Dec 8, 8:00 PM)37% (Dec 14, 5:00 PM)29.65 "Hg (Dec 8, 2:00 PM)
Average80 °F80%29.88 "Hg
* Reported Dec 6 2:00 AM — Dec 21 2:00 AM, Makati, Weather by CustomWeather, © 2014

Note: Actual official high and low records may vary slightly from our data, if they occured in-between our weather recording intervals... More about our weather records

Advertising

Makati weather history for previous 24 hours

 ConditionsComfort  
Time TempWeatherWind HumidityBarometerVisibility
2:00 AM
Dec 21
77 °FPartly cloudy.2 mph100%29.89 "HgN/A
1:00 AM77 °FPartly cloudy.6 mph100%29.89 "HgN/A
12:00 AM77 °FPartly cloudy.1 mph100%29.89 "HgN/A
11:00 PM
Dec 20
77 °FPartly cloudy.2 mph100%29.92 "HgN/A
10:00 PM79 °FMostly cloudy.7 mph94%29.92 "HgN/A
9:00 PM79 °FSprinkles. Mostly cloudy.3 mph94%29.92 "HgN/A
8:00 PM81 °FMostly cloudy.2 mph84%29.89 "HgN/A
7:00 PM82 °FMostly cloudy.6 mph70%29.86 "HgN/A
6:00 PM82 °FMostly cloudy.7 mph74%29.83 "HgN/A
5:00 PM84 °FMore clouds than sun.3 mph70%29.83 "HgN/A
4:00 PM84 °FMore clouds than sun.5 mph70%29.83 "HgN/A
3:00 PM84 °FBroken clouds.8 mph70%29.83 "HgN/A
2:00 PM82 °FBroken clouds.7 mph74%29.83 "HgN/A
1:00 PM82 °FScattered clouds.8 mph74%29.86 "HgN/A
12:00 PM84 °FBroken clouds.9 mph66%29.89 "Hg6 mi
11:00 AM82 °FScattered clouds.8 mph70%29.92 "Hg6 mi
10:00 AM82 °FPassing clouds.7 mph70%29.92 "Hg6 mi
9:00 AM81 °FPassing clouds.3 mph74%29.95 "Hg6 mi
8:00 AM81 °FPassing clouds.1 mph74%29.95 "Hg6 mi
7:00 AM75 °FPassing clouds.3 mph89%29.92 "Hg6 mi
6:00 AM77 °FPassing clouds.3 mph89%29.89 "HgN/A
5:00 AM77 °FPassing clouds.3 mph89%29.89 "HgN/A
4:00 AM77 °FPassing clouds.3 mph89%29.89 "HgN/A
3:00 AM77 °FPassing clouds.1 mph89%29.89 "HgN/A
Weather by CustomWeather, © 2014

See weather overviewHow to use our weather pages